Home > Weather > Farmington > Past weeks

Flag for USA Past Weather in Farmington, New Mexico, USA — Yesterday and Last 2 Weeks

Now
74 °F

Sunny.


Feels Like: 77 °F
Forecast: 67 / 97 °F
Wind: 12 mph from East

Location: Four Corners Regional Airport

Current Time: Jul 28, 2016 at 8:37:48 AM

Latest Report: Jul 28, 2016 at 7:53 AM


Visibility: 10 mi

Pressure: 29.98 "Hg (24.88 "Hg at 1617m altitude)

Humidity: 33%

Dew Point: 43 °F

Location of FarmingtonLocation

Past Weather in Farmington — Graph

°F

Farmington Temperature Yesterday

Maximum temperature yesterday: 99 °F (at 4:53 PM)
Minimum temperature yesterday: 61 °F (at 5:53 AM)
Average temperature yesterday: 80 °F

High & Low Weather Summary for the Past Weeks

 TemperatureHumidityPressure
High99 °F (Jul 27, 4:53 PM)84% (Jul 20, 4:53 AM)30.20 "Hg (Jul 20, 4:53 AM)
Low53 °F (Jul 14, 5:53 AM)5% (Jul 13, 3:53 PM)29.78 "Hg (Jul 16, 7:53 PM)
Average79 °F30%29.97 "Hg
* Reported Jul 13 6:53 AM — Jul 28 6:53 AM, Farmington, Weather by CustomWeather, © 2016

Note: Actual official high and low records may vary slightly from our data, if they occured in-between our weather recording intervals... More about our weather records

Advertising

Farmington Weather History for the Previous 24 Hours

Scroll right to see more
 ConditionsComfort  
Time TempWeatherWind HumidityBarometerVisibility
6:53 AM
Thu, Jul 28
72 °FClear.14 mph35%29.96 "Hg10 mi
5:53 AM71 °FClear.9 mph38%29.94 "Hg10 mi
4:53 AM73 °FClear.9 mph34%29.92 "Hg10 mi
3:53 AM73 °FClear.8 mph32%29.90 "Hg10 mi
2:53 AM72 °FClear.13 mph23%29.90 "Hg10 mi
1:53 AM78 °FClear.15 mph24%29.89 "Hg10 mi
12:53 AM80 °FClear.12 mph14%29.87 "Hg10 mi
11:53 PM
Wed, Jul 27
77 °FClear.6 mph18%29.88 "Hg10 mi
10:53 PM81 °FClear.15 mph18%29.86 "Hg10 mi
9:53 PM82 °FClear.9 mph18%29.87 "Hg10 mi
8:53 PM89 °FSunny.9 mph13%29.83 "Hg10 mi
7:53 PM94 °FSunny.14 mph9%29.82 "Hg10 mi
6:53 PM97 °FSunny.12 mph8%29.81 "Hg10 mi
5:53 PM98 °FSunny.7 mph8%29.83 "Hg10 mi
4:53 PM99 °FSunny.15 mph8%29.85 "Hg10 mi
3:53 PM95 °FSunny.12 mph14%29.88 "Hg10 mi
2:53 PM94 °FSunny.9 mph17%29.92 "Hg10 mi
1:53 PM92 °FSunny.8 mph18%29.94 "Hg10 mi
12:53 PM90 °FSunny.6 mph22%29.98 "Hg10 mi
11:53 AM85 °FSunny.6 mph28%30.01 "Hg10 mi
10:53 AM81 °FSunny.5 mph34%30.02 "Hg10 mi
9:53 AM76 °FSunny.6 mph40%30.04 "Hg10 mi
8:53 AM73 °FSunny.12 mph40%30.04 "Hg10 mi
Weather by CustomWeather, © 2016

See weather overviewHow to use our weather pages